Harrow, Ontario

1:39 PM EDT on September 20, 2017 (GMT -0400)
Harrow

Weather History for CXHA - January, 2013

Change the Weather History Date:

Monday, January 28, 2013

  Actual Average (CYQG) Record (CYQG)
Temperature  
Mean Temperature 34 °F -  
Max Temperature 44 °F 29 °F 55 °F (2002)
Min Temperature 25 °F 18 °F -8 °F (2014)
Degree Days  
Heating Degree Days 30    
Moisture  
Dew Point 37 °F    
Average Humidity 96    
Maximum Humidity 100    
Minimum Humidity 82    
Precipitation  
Precipitation 0.16 in - - ()
Sea Level Pressure  
Sea Level Pressure 29.99 in    
Wind  
Wind Speed 9 mph ()    
Max Wind Speed 17 mph    
Max Gust Speed 25 mph    
Averages and records for this station are not official NWS values.
T = Trace of Precipitation, MM = Missing Value Source: Averaged Metar Reports

Daily Weather History Graph

Daily Weather History Graph

Search for Another Location

Airport or City:

Trip Planner

Search our weather history database for the weather conditions in past years. The results will help you decide how hot, cold, wet, or windy it might be!

Date:

Astronomy

Jan. 28, 2013 Rise Set
Actual Time 7:48 AM EST 5:41 PM EST
Civil Twilight 7:18 AM EST 6:11 PM EST
Nautical Twilight 6:44 AM EST 6:45 PM EST
Astronomical Twilight 6:11 AM EST 7:18 PM EST
Moon 7:38 PM EST (1/28) 8:10 AM EST (1/28)
Length of Visible Light 10h 53m
Length of Day
9h 53m
Full, 98% of the Moon is Illuminated
Jan 28
Full
Feb 3
Last Quarter
Feb 10
New
Feb 17
First Quarter
Feb 25
Full

Hourly Weather History & Observations

Time (EST) Temp. Windchill Dew Point Humidity Pressure Visibility Wind Dir Wind Speed Gust Speed Precip Events Conditions
12:00 AM 29.5 °F 20.4 °F 26.2 °F 88% 30.18 in - SSE 10.4 mph - N/A   Unknown
1:00 AM 31 °F - 28 °F 82% 30.18 in - SSE 11.5 mph - -  
1:00 AM 31.1 °F 21.9 °F 27.7 °F 87% 30.18 in - SSE 11.5 mph - N/A   Unknown
2:00 AM 31.3 °F 25.6 °F 29.1 °F 92% 30.13 in - SSE 5.8 mph - 0.06 in   Unknown
3:00 AM 31.6 °F 26.0 °F 29.8 °F 93% 30.09 in - SSE 5.8 mph - N/A   Unknown
4:00 AM 31.6 °F 26.0 °F 31.3 °F 99% 30.05 in - SSE 5.8 mph - N/A   Unknown
5:00 AM 31.3 °F 25.6 °F 32.0 °F 100% 30.02 in - South 5.8 mph - N/A   Unknown
6:00 AM 34.3 °F 27.0 °F 33.6 °F 97% 30.00 in - SSW 9.2 mph - 0.05 in   Unknown
7:00 AM 36 °F - 35 °F 94% 29.97 in - SSW 12.7 mph - -  
7:00 AM 35.6 °F 27.1 °F 34.9 °F 97% 29.97 in - SSW 12.7 mph 18.4 mph 0.05 in   Unknown
8:00 AM 36.7 °F 28.4 °F 36.0 °F 97% 29.95 in - SSW 12.7 mph 19.6 mph N/A   Unknown
9:00 AM 37.6 °F 29.6 °F 36.9 °F 97% 29.94 in - SSW 12.7 mph - N/A   Unknown
10:00 AM 38.5 °F 31.1 °F 37.6 °F 97% 29.92 in - SW 11.5 mph 17.3 mph N/A   Unknown
11:00 AM 39.7 °F 32.3 °F 39.0 °F 97% 29.93 in - SW 12.7 mph 19.6 mph 0.03 in   Unknown
12:00 PM 41.0 °F 33.5 °F 40.3 °F 97% 29.92 in - SW 13.8 mph 20.7 mph N/A   Unknown
1:00 PM 42 °F - 42 °F 98% 29.89 in - WSW 17.3 mph - -  
1:00 PM 42.1 °F 33.9 °F 41.5 °F 98% 29.89 in - WSW 17.3 mph - N/A   Unknown
2:00 PM 43.0 °F 35.1 °F 42.4 °F 98% 29.88 in - WSW 17.3 mph 25.3 mph N/A   Unknown
3:00 PM 43.9 °F 36.5 °F 43.3 °F 98% 29.88 in - WSW 16.1 mph 23.0 mph N/A   Unknown
4:00 PM 43.9 °F 37.2 °F 43.3 °F 98% 29.90 in - WSW 13.8 mph 19.6 mph N/A   Unknown
5:00 PM 43.2 °F 37.4 °F 42.6 °F 98% 29.91 in - WSW 10.4 mph - N/A   Unknown
6:00 PM 42.6 °F 37.8 °F 42.1 °F 98% 29.94 in - WSW 8.1 mph - N/A   Unknown
7:00 PM 43 °F - 43 °F 99% 29.96 in - West 6.9 mph - -  
7:00 PM 43.3 °F 39.2 °F 42.8 °F 98% 29.96 in - West 6.9 mph - N/A   Unknown
8:00 PM 44.4 °F 41.2 °F 44.1 °F 99% 29.99 in - WNW 5.8 mph - N/A   Unknown
9:00 PM 41.7 °F - 41.2 °F 98% 30.01 in - North 2.3 mph - N/A   Unknown
10:00 PM 38.8 °F 36.5 °F 38.1 °F 97% 30.02 in - North 3.5 mph - N/A   Unknown
11:00 PM 37.6 °F 35.1 °F 36.7 °F 97% 30.03 in - North 3.5 mph - N/A   Unknown